[Date Prev][Date Next][Thread Prev][Thread Next] - [Date Index][Thread Index][Author Index]
2 Line ISS Keps 11-21
- Subject: [sarex] 2 Line ISS Keps 11-21
- From: "Dave Larsen PhD" <doc@xxxxxxxxxxx>
- Date: Fri, 21 Nov 2003 02:48:56 -0800
ISS
1 25544U 98067A 03325.19761630 .00021916 00000-0 22951-3 0 7951
2 25544 51.6306 308.3545 0006166 158.7821 308.9674 15.64328022285546
----
Via the sarex mailing list at AMSAT.ORG courtesy of AMSAT-NA.
To unsubscribe, send "unsubscribe sarex" to Majordomo@amsat.org
AMSAT Home